LRCV Weather Reports


time (UTC)temp
F
wind
direction
speed
knots
gust
knots
rain 1hr
in
rain 24hr
in
rain mn
in
humidity
%
barometer
mb
20260505223341 54 70 5.2 0.0 0.00 0.00 0.00 82 1014.0
20260505221839 54 110 5.2 0.0 0.00 0.00 0.00 82 1014.0
20260505220341 54 110 5.2 0.0 0.00 0.00 0.00 82 1014.0
20260505214842 54 90 4.3 0.0 0.00 0.00 0.00 82 1014.0
20260505213341 54 90 4.3 0.0 0.00 0.00 0.00 82 1014.0
20260505211841 59 300 2.6 0.0 0.00 0.00 0.00 63 1014.0
20260505210341 59 300 2.6 0.0 0.00 0.00 0.00 63 1014.0
20260505204843 61 160 4.3 0.0 0.00 0.00 0.00 59 1013.0
20260505203341 61 160 4.3 0.0 0.00 0.00 0.00 59 1013.0
20260505201912 61 160 5.2 0.0 0.00 0.00 0.00 59 1013.0
20260505200342 61 160 5.2 0.0 0.00 0.00 0.00 59 1013.0
20260505194841 63 180 5.2 0.0 0.00 0.00 0.00 56 1013.0
20260505193341 63 180 5.2 0.0 0.00 0.00 0.00 56 1013.0
20260505191841 64 180 4.3 0.0 0.00 0.00 0.00 52 1013.0
20260505190341 64 180 4.3 0.0 0.00 0.00 0.00 52 1013.0
20260505184842 66 180 2.6 0.0 0.00 0.00 0.00 49 1013.0
20260505183342 66 180 2.6 0.0 0.00 0.00 0.00 49 1013.0
20260505181842 70 210 4.3 0.0 0.00 0.00 0.00 40 1013.0
20260505180341 70 210 4.3 0.0 0.00 0.00 0.00 40 1013.0
20260505174839 72 230 4.3 0.0 0.00 0.00 0.00 36 1013.0
20260505173341 72 230 4.3 0.0 0.00 0.00 0.00 36 1013.0
20260505171841 73 230 5.2 0.0 0.00 0.00 0.00 33 1013.0
20260505170341 73 230 5.2 0.0 0.00 0.00 0.00 33 1013.0
20260505164841 75 230 7.0 0.0 0.00 0.00 0.00 31 1013.0
20260505163341 75 230 7.0 0.0 0.00 0.00 0.00 31 1013.0
20260505161842 77 230 7.0 0.0 0.00 0.00 0.00 28 1013.0
20260505160342 77 230 7.0 0.0 0.00 0.00 0.00 28 1013.0
20260505153341 77 240 7.8 0.0 0.00 0.00 0.00 30 1013.0
20260505151850 79 220 7.8 0.0 0.00 0.00 0.00 26 1013.0
20260505150342 79 220 7.8 0.0 0.00 0.00 0.00 26 1013.0
20260505140341 79 280 7.8 0.0 0.00 0.00 0.00 28 1013.0
20260505124841 77 4.3 0.0 0.00 0.00 0.00 32 1014.0
20260505123341 77 4.3 0.0 0.00 0.00 0.00 32 1014.0
20260505121841 79 220 6.1 0.0 0.00 0.00 0.00 28 1014.0
20260505120351 79 270 6.1 0.0 0.00 0.00 0.00 32 1015.0
20260505114849 79 270 6.1 0.0 0.00 0.00 0.00 32 1015.0
20260505113412 79 270 6.1 0.0 0.00 0.00 0.00 32 1015.0
20260505111841 77 290 6.1 0.0 0.00 0.00 0.00 36 1015.0
20260505110342 77 290 6.1 0.0 0.00 0.00 0.00 36 1015.0
20260505101842 75 260 6.1 0.0 0.00 0.00 0.00 41 1015.0
20260505100342 75 260 6.1 0.0 0.00 0.00 0.00 41 1015.0
20260505094843 75 240 5.2 0.0 0.00 0.00 0.00 39 1016.0
20260505093341 75 240 5.2 0.0 0.00 0.00 0.00 39 1016.0
20260505091841 73 1.7 0.0 0.00 0.00 0.00 41 1016.0
20260505090341 73 1.7 0.0 0.00 0.00 0.00 41 1016.0
20260505084841 72 60 2.6 0.0 0.00 0.00 0.00 41 1016.0
20260505083342 72 60 2.6 0.0 0.00 0.00 0.00 41 1016.0
20260505081842 72 1.7 0.0 0.00 0.00 0.00 41 1016.0
20260505080341 72 1.7 0.0 0.00 0.00 0.00 41 1016.0
20260505074902 70 70 2.6 0.0 0.00 0.00 0.00 43 1016.0
20260505073341 70 70 2.6 0.0 0.00 0.00 0.00 43 1016.0
20260505071841 70 0 0.0 0.0 0.00 0.00 0.00 43 1016.0
20260505070341 70 0 0.0 0.0 0.00 0.00 0.00 43 1016.0
20260505064841 64 0.9 0.0 0.00 0.00 0.00 64 1016.0
20260505063342 64 0.9 0.0 0.00 0.00 0.00 64 1016.0
20260505061841 61 0.9 0.0 0.00 0.00 0.00 68 1016.0
20260505060342 61 0.9 0.0 0.00 0.00 0.00 68 1016.0
20260505054841 55 80 4.3 0.0 0.00 0.00 0.00 77 1016.0
20260505053342 55 80 4.3 0.0 0.00 0.00 0.00 77 1016.0
20260505051841 54 1.7 0.0 0.00 0.00 0.00 82 1016.0
20260505050341 54 1.7 0.0 0.00 0.00 0.00 82 1016.0
20260505040341 50 1.7 0.0 0.00 0.00 0.00 88 1016.0
20260505034841 45 300 4.3 0.0 0.00 0.00 0.00 93 1016.0
20260505033341 45 300 4.3 0.0 0.00 0.00 0.00 93 1016.0
20260505031841 45 280 6.1 0.0 0.00 0.00 0.00 93 1015.0
20260505030341 45 280 6.1 0.0 0.00 0.00 0.00 93 1015.0
20260505024841 46 320 2.6 0.0 0.00 0.00 0.00 93 1015.0
20260505023341 46 320 2.6 0.0 0.00 0.00 0.00 93 1015.0
20260505021841 48 320 4.3 0.0 0.00 0.00 0.00 87 1015.0
20260505020341 48 320 4.3 0.0 0.00 0.00 0.00 87 1015.0
20260505014841 48 340 2.6 0.0 0.00 0.00 0.00 82 1015.0
20260505013342 48 340 2.6 0.0 0.00 0.00 0.00 82 1015.0
20260505011841 50 320 4.3 0.0 0.00 0.00 0.00 82 1015.0
20260505010342 50 320 4.3 0.0 0.00 0.00 0.00 82 1015.0
20260505004841 48 310 4.3 0.0 0.00 0.00 0.00 82 1015.0
20260505003341 48 310 4.3 0.0 0.00 0.00 0.00 82 1015.0
20260505001842 54 20 4.3 0.0 0.00 0.00 0.00 72 1015.0
20260505000343 54 20 4.3 0.0 0.00 0.00 0.00 72 1015.0
20260504234841 54 350 5.2 0.0 0.00 0.00 0.00 72 1015.0
20260504233341 54 350 5.2 0.0 0.00 0.00 0.00 72 1015.0
20260504231842 54 10 2.6 0.0 0.00 0.00 0.00 72 1015.0
20260504230341 54 10 2.6 0.0 0.00 0.00 0.00 72 1015.0
20260504224841 55 360 6.1 0.0 0.00 0.00 0.00 67 1015.0